| time (UTC) | temp F | wind direction | speed MPH | gust MPH | rain 1hr in | rain 24hr in | rain mn in | humidity % | barometer mb |
| 20260507194600 | 50 | 273 | 4.0 | 12.0 | 0.00 | 0.04 | 0.00 | 40 | 1006.9 |
| 20260507193102 | 51 | 294 | 5.0 | 16.0 | 0.00 | 0.05 | 0.00 | 43 | 1007.0 |
| 20260507191558 | 51 | 160 | 4.0 | 10.0 | 0.00 | 0.05 | 0.00 | 44 | 1007.0 |
| 20260507190055 | 51 | 34 | 6.0 | 16.0 | 0.00 | 0.05 | 0.00 | 44 | 1007.4 |
| 20260507184524 | 51 | 360 | 8.0 | 17.0 | 0.00 | 0.05 | 0.00 | 45 | 1007.4 |
| 20260507183033 | 53 | 269 | 4.0 | 10.0 | 0.00 | 0.07 | 0.00 | 43 | 1007.6 |
| 20260507181520 | 52 | 207 | 6.0 | 15.0 | 0.00 | 0.07 | 0.00 | 45 | 1007.6 |
| 20260507180020 | 50 | 289 | 3.0 | 14.0 | 0.00 | 0.07 | 0.00 | 48 | 1007.8 |
| 20260507174512 | 50 | 246 | 6.0 | 16.0 | 0.00 | 0.07 | 0.00 | 49 | 1007.8 |
| 20260507173011 | 49 | 290 | 6.0 | 14.0 | 0.00 | 0.10 | 0.00 | 52 | 1007.8 |
| 20260507171507 | 50 | 323 | 4.0 | 10.0 | 0.00 | 0.10 | 0.00 | 52 | 1008.0 |
| 20260507170005 | 48 | 344 | 3.0 | 13.0 | 0.00 | 0.10 | 0.00 | 53 | 1008.2 |
| 20260507164502 | 48 | 302 | 9.0 | 18.0 | 0.00 | 0.10 | 0.00 | 49 | 1008.1 |
| 20260507163000 | 48 | 238 | 4.0 | 13.0 | 0.00 | 0.19 | 0.00 | 50 | 1008.2 |
| 20260507161604 | 48 | 275 | 5.0 | 13.0 | 0.00 | 0.19 | 0.00 | 50 | 1008.4 |
| 20260507160100 | 49 | 5 | 6.0 | 12.0 | 0.00 | 0.19 | 0.00 | 50 | 1008.4 |
| 20260507154554 | 47 | 355 | 7.0 | 15.0 | 0.00 | 0.19 | 0.00 | 50 | 1008.6 |
| 20260507153051 | 47 | 310 | 3.0 | 9.0 | 0.00 | 0.20 | 0.19 | 52 | 1008.8 |
| 20260507151548 | 47 | 342 | 6.0 | 10.0 | 0.00 | 0.20 | 0.19 | 52 | 1008.9 |
| 20260507150048 | 47 | 284 | 3.0 | 12.0 | 0.00 | 0.20 | 0.19 | 53 | 1008.9 |
| 20260507144547 | 46 | 267 | 4.0 | 14.0 | 0.00 | 0.20 | 0.19 | 53 | 1009.1 |
| 20260507143047 | 46 | 360 | 4.0 | 13.0 | 0.00 | 0.28 | 0.19 | 53 | 1009.1 |
| 20260507141551 | 46 | 342 | 5.0 | 13.0 | 0.00 | 0.28 | 0.19 | 55 | 1009.1 |
| 20260507140043 | 45 | 45 | 2.0 | 19.0 | 0.00 | 0.28 | 0.19 | 56 | 1009.1 |
| 20260507134551 | 45 | 21 | 5.0 | 13.0 | 0.00 | 0.28 | 0.19 | 55 | 1009.2 |
| 20260507133042 | 44 | 251 | 5.0 | 11.0 | 0.00 | 0.31 | 0.19 | 58 | 1009.3 |
| 20260507131541 | 43 | 265 | 6.0 | 15.0 | 0.00 | 0.31 | 0.19 | 58 | 1009.2 |
| 20260507130041 | 43 | 296 | 4.0 | 11.0 | 0.00 | 0.31 | 0.19 | 59 | 1009.3 |
| 20260507124537 | 42 | 355 | 3.0 | 12.0 | 0.00 | 0.31 | 0.19 | 60 | 1009.3 |
| 20260507123038 | 42 | 336 | 3.0 | 8.0 | 0.00 | 0.33 | 0.19 | 63 | 1009.2 |
| 20260507121505 | 41 | 266 | 2.0 | 9.0 | 0.00 | 0.33 | 0.19 | 66 | 1009.0 |
| 20260507120006 | 40 | 311 | 4.0 | 14.0 | 0.00 | 0.33 | 0.19 | 70 | 1009.0 |
| 20260507114504 | 39 | 273 | 1.0 | 9.0 | 0.00 | 0.33 | 0.19 | 75 | 1009.0 |
| 20260507113002 | 38 | 242 | 1.0 | 4.0 | 0.00 | 0.37 | 0.19 | 80 | 1009.0 |
| 20260507111500 | 36 | 167 | 0.0 | 2.0 | 0.00 | 0.37 | 0.19 | 88 | 1009.1 |
| 20260507110120 | 35 | 157 | 1.0 | 2.0 | 0.00 | 0.37 | 0.19 | 91 | 1009.0 |
| 20260507104558 | 35 | 159 | 0.0 | 2.0 | 0.00 | 0.37 | 0.19 | 92 | 1008.7 |
| 20260507103056 | 34 | 137 | 0.0 | 2.0 | 0.00 | 0.38 | 0.19 | 93 | 1008.6 |
| 20260507101552 | 34 | 292 | 0.0 | 0.0 | 0.00 | 0.38 | 0.19 | 92 | 1008.5 |
| 20260507100049 | 35 | 292 | 0.0 | 1.0 | 0.00 | 0.38 | 0.19 | 92 | 1008.6 |
| 20260507094548 | 36 | 292 | 0.0 | 2.0 | 0.00 | 0.38 | 0.19 | 91 | 1008.5 |
| 20260507093042 | 36 | 292 | 0.0 | 2.0 | 0.00 | 0.39 | 0.19 | 90 | 1008.5 |
| 20260507091548 | 38 | 294 | 0.0 | 0.0 | 0.00 | 0.39 | 0.19 | 65 | 1008.5 |
| 20260507090041 | 38 | 252 | 0.0 | 0.0 | 0.00 | 0.39 | 0.19 | 69 | 1008.5 |
| 20260507084539 | 39 | 327 | 1.0 | 5.0 | 0.00 | 0.39 | 0.19 | 71 | 1008.5 |
| 20260507083036 | 40 | 268 | 0.0 | 6.0 | 0.00 | 0.39 | 0.19 | 69 | 1008.3 |
| 20260507081526 | 40 | 252 | 2.0 | 4.0 | 0.00 | 0.39 | 0.19 | 64 | 1008.2 |
| 20260507080028 | 40 | 339 | 1.0 | 2.0 | 0.00 | 0.39 | 0.19 | 62 | 1008.3 |
| 20260507074537 | 41 | 267 | 2.0 | 8.0 | 0.00 | 0.39 | 0.19 | 61 | 1008.4 |
| 20260507073019 | 41 | 22 | 0.0 | 3.0 | 0.00 | 0.39 | 0.19 | 53 | 1008.3 |
| 20260507071517 | 41 | 241 | 1.0 | 6.0 | 0.00 | 0.39 | 0.19 | 47 | 1008.1 |
| 20260507070014 | 42 | 329 | 2.0 | 8.0 | 0.00 | 0.39 | 0.19 | 44 | 1008.2 |
| 20260507064512 | 42 | 18 | 2.0 | 13.0 | 0.00 | 0.39 | 0.19 | 42 | 1008.0 |
| 20260507063007 | 42 | 327 | 3.0 | 8.0 | 0.00 | 0.39 | 0.19 | 40 | 1007.8 |
| 20260507061505 | 42 | 101 | 2.0 | 9.0 | 0.00 | 0.39 | 0.19 | 38 | 1007.6 |
| 20260507060002 | 43 | 49 | 0.0 | 4.0 | 0.00 | 0.39 | 0.19 | 35 | 1007.6 |
| 20260507054502 | 43 | 171 | 0.0 | 2.0 | 0.00 | 0.39 | 0.19 | 32 | 1007.8 |
| 20260507053100 | 43 | 351 | 0.0 | 3.0 | 0.00 | 0.39 | 0.19 | 30 | 1007.8 |
| 20260507051559 | 43 | 182 | 1.0 | 3.0 | 0.00 | 0.39 | 0.19 | 28 | 1007.9 |
| 20260507050100 | 43 | 200 | 2.0 | 5.0 | 0.00 | 0.39 | 0.19 | 28 | 1008.0 |
| 20260507044600 | 43 | 175 | 1.0 | 3.0 | 0.00 | 0.39 | 0.19 | 27 | 1007.8 |
| 20260507043058 | 43 | 227 | 0.0 | 0.0 | 0.00 | 0.39 | 0.19 | 27 | 1007.5 |
| 20260507041552 | 43 | 227 | 0.0 | 2.0 | 0.00 | 0.39 | 0.19 | 29 | 1007.7 |
| 20260507040052 | 43 | 227 | 0.0 | 1.0 | 0.00 | 0.39 | 0.19 | 29 | 1007.6 |
| 20260507034558 | 43 | 227 | 0.0 | 3.0 | 0.00 | 0.39 | 0.19 | 30 | 1007.6 |
| 20260507033048 | 43 | 215 | 0.0 | 2.0 | 0.00 | 0.39 | 0.19 | 31 | 1007.9 |
| 20260507031547 | 43 | 109 | 0.0 | 2.0 | 0.00 | 0.39 | 0.19 | 32 | 1007.8 |
| 20260507030047 | 43 | 132 | 0.0 | 2.0 | 0.00 | 0.39 | 0.19 | 33 | 1007.7 |
| 20260507024555 | 43 | 239 | 0.0 | 4.0 | 0.00 | 0.39 | 0.19 | 36 | 1007.7 |
| 20260507023040 | 44 | 135 | 0.0 | 1.0 | 0.00 | 0.39 | 0.19 | 36 | 1007.9 |
| 20260507021546 | 44 | 181 | 1.0 | 4.0 | 0.00 | 0.39 | 0.19 | 38 | 1008.0 |
| 20260507020039 | 44 | 267 | 0.0 | 3.0 | 0.00 | 0.39 | 0.19 | 40 | 1008.1 |
| 20260507014542 | 44 | 273 | 0.0 | 5.0 | 0.00 | 0.39 | 0.19 | 40 | 1007.9 |
| 20260507013034 | 44 | 309 | 1.0 | 7.0 | 0.00 | 0.39 | 0.19 | 38 | 1008.0 |
| 20260507011540 | 44 | 306 | 1.0 | 3.0 | 0.01 | 0.39 | 0.19 | 36 | 1008.1 |
| 20260507010031 | 44 | 233 | 1.0 | 3.0 | 0.01 | 0.39 | 0.19 | 36 | 1007.9 |
| 20260507004528 | 44 | 221 | 2.0 | 5.0 | 0.01 | 0.39 | 0.19 | 36 | 1007.3 |
| 20260507003023 | 44 | 317 | 2.0 | 7.0 | 0.01 | 0.39 | 0.19 | 37 | 1007.2 |
| 20260507001526 | 45 | 303 | 3.0 | 8.0 | 0.00 | 0.38 | 0.18 | 37 | 1007.1 |
| 20260507000023 | 45 | 349 | 3.0 | 8.0 | 0.00 | 0.38 | 0.18 | 35 | 1007.0 |
| 20260506234519 | 45 | 281 | 2.0 | 8.0 | 0.00 | 0.38 | 0.18 | 35 | 1006.8 |
| 20260506233057 | 45 | 296 | 3.0 | 13.0 | 0.00 | 0.38 | 0.18 | 34 | 1006.5 |
| 20260506231544 | 45 | 74 | 1.0 | 6.0 | 0.00 | 0.38 | 0.18 | 31 | 1006.4 |
| 20260506230044 | 46 | 180 | 2.0 | 5.0 | 0.00 | 0.38 | 0.18 | 31 | 1006.2 |
| 20260506224538 | 46 | 300 | 2.0 | 6.0 | 0.01 | 0.38 | 0.18 | 31 | 1005.8 |
| 20260506223136 | 46 | 5 | 2.0 | 9.0 | 0.01 | 0.38 | 0.18 | 29 | 1005.9 |
| 20260506221535 | 46 | 279 | 1.0 | 4.0 | 0.01 | 0.38 | 0.18 | 29 | 1005.7 |
| 20260506220032 | 46 | 286 | 3.0 | 6.0 | 0.01 | 0.38 | 0.18 | 29 | 1005.6 |
| 20260506214529 | 46 | 334 | 1.0 | 6.0 | 0.01 | 0.37 | 0.17 | 28 | 1005.2 |
| 20260506213024 | 46 | 296 | 1.0 | 8.0 | 0.01 | 0.37 | 0.17 | 27 | 1004.9 |
| 20260506211524 | 46 | 279 | 0.0 | 6.0 | 0.01 | 0.37 | 0.17 | 25 | 1004.5 |
| 20260506210024 | 46 | 38 | 3.0 | 6.0 | 0.01 | 0.37 | 0.17 | 24 | 1004.1 |
| 20260506210021 | 46 | 342 | 3.0 | 6.0 | 0.01 | 0.37 | 0.17 | 24 | 1004.1 |
| 20260506204523 | 46 | 30 | 5.0 | 12.0 | 0.01 | 0.36 | 0.16 | 24 | 1004.3 |
| 20260506203014 | 47 | 291 | 6.0 | 11.0 | 0.01 | 0.37 | 0.16 | 22 | 1004.0 |
| 20260506201512 | 48 | 5 | 4.0 | 8.0 | 0.02 | 0.37 | 0.16 | 19 | 1003.7 |
| 20260506200011 | 47 | 334 | 1.0 | 5.0 | 0.02 | 0.37 | 0.16 | 20 | 1003.5 |